FW9691 Weather Reports


time (UTC)temp
C
wind
direction
speed
KPH
gust
KPH
rain 1hr
cm
rain 24hr
cm
rain mn
cm
humidity
%
barometer
mb
20260507124504 12 88 20.9 29.0 0.00 0.00 0.00 70 1014.7
20260507123106 12 72 25.7 32.2 0.00 0.00 0.00 69 1014.3
20260507121601 12 80 25.7 33.8 0.00 0.00 0.00 69 1014.3
20260507120057 12 82 19.3 27.4 0.00 0.00 0.00 69 1013.9
20260507114556 12 78 19.3 30.6 0.00 0.00 0.00 69 1013.8
20260507113127 12 96 24.1 41.8 0.00 0.00 0.00 68 1013.4
20260507111539 12 94 29.0 40.2 0.00 0.00 0.00 68 1013.0
20260507110040 12 98 24.1 35.4 0.00 0.00 0.00 67 1012.9
20260507104536 12 84 27.4 35.4 0.00 0.00 0.00 66 1012.9
20260507103035 12 99 27.4 35.4 0.00 0.00 0.00 66 1012.5
20260507101545 12 80 14.5 20.9 0.00 0.00 0.00 66 1012.6
20260507100053 11 36 11.3 17.7 0.00 0.00 0.00 63 1012.6
20260507094542 11 349 19.3 24.1 0.00 0.00 0.00 61 1012.7
20260507093040 11 10 17.7 30.6 0.00 0.00 0.00 60 1012.5
20260507091541 11 9 20.9 29.0 0.00 0.00 0.00 60 1012.6
20260507090035 11 360 17.7 30.6 0.00 0.00 0.00 60 1012.3
20260507084548 12 350 27.4 37.0 0.00 0.00 0.00 59 1012.3
20260507083032 12 325 20.9 33.8 0.00 0.00 0.00 57 1011.6
20260507081545 13 335 24.1 33.8 0.00 0.00 0.00 55 1011.6
20260507080041 13 315 20.9 33.8 0.00 0.00 0.00 52 1011.6
20260507074536 15 308 19.3 25.7 0.00 0.00 0.00 48 1011.6
20260507073033 16 305 20.9 30.6 0.00 0.00 0.00 41 1011.4
20260507071516 16 132 12.9 19.3 0.00 0.00 0.00 36 1011.7
20260507070016 17 329 29.0 40.2 0.00 0.00 0.00 34 1010.3
20260507064504 16 43 3.2 12.9 0.00 0.00 0.00 37 1009.6
20260507063059 17 34 14.5 17.7 0.00 0.00 0.00 33 1009.3
20260507061503 18 35 14.5 17.7 0.00 0.00 0.00 31 1009.2
20260507060100 20 38 4.8 9.7 0.00 0.00 0.00 26 1009.0
20260507054559 20 38 6.4 8.0 0.00 0.00 0.00 25 1009.1
20260507053057 21 38 8.0 16.1 0.00 0.00 0.00 22 1009.0
20260507051606 21 55 11.3 14.5 0.00 0.00 0.00 22 1009.1
20260507050107 22 56 6.4 9.7 0.00 0.00 0.00 22 1008.9
20260507044556 21 56 4.8 8.0 0.00 0.00 0.00 23 1008.8
20260507043051 21 278 4.8 6.4 0.00 0.00 0.00 25 1008.7
20260507041545 21 278 3.2 4.8 0.00 0.00 0.00 25 1008.5
20260507040047 21 278 0.0 4.8 0.00 0.00 0.00 25 1008.4
20260507034543 21 278 3.2 6.4 0.00 0.00 0.00 24 1008.2
20260507033046 22 278 11.3 14.5 0.00 0.00 0.00 23 1008.0
20260507031546 22 274 12.9 16.1 0.00 0.00 0.00 23 1007.7
20260507030046 23 256 14.5 19.3 0.00 0.00 0.00 22 1007.5
20260507024547 23 254 17.7 20.9 0.00 0.00 0.00 21 1007.2
20260507023044 23 260 17.7 19.3 0.00 0.00 0.00 20 1007.0
20260507021548 23 256 14.5 17.7 0.00 0.00 0.00 20 1006.8
20260507020037 24 258 14.5 19.3 0.00 0.00 0.00 19 1006.6
20260507014536 25 257 14.5 20.9 0.00 0.00 0.00 18 1006.3
20260507013037 26 285 17.7 22.5 0.00 0.00 0.00 17 1005.9
20260507011539 26 272 17.7 33.8 0.00 0.00 0.00 17 1005.7
20260507010042 26 278 20.9 32.2 0.00 0.00 0.00 17 1005.5
20260507004536 27 266 22.5 43.5 0.00 0.00 0.00 16 1005.4
20260507003035 27 248 27.4 38.6 0.00 0.00 0.00 16 1005.4
20260507001546 27 267 29.0 45.1 0.00 0.00 0.00 16 1005.3
20260507000045 27 261 27.4 43.5 0.00 0.00 0.00 16 1005.1
20260506234557 27 260 22.5 43.5 0.00 0.00 0.00 17 1005.0
20260506233044 27 262 24.1 41.8 0.00 0.00 0.00 16 1005.0
20260506231537 27 275 37.0 51.5 0.00 0.00 0.00 16 1004.9
20260506230036 27 242 33.8 45.1 0.00 0.00 0.00 15 1005.0
20260506224536 27 251 35.4 48.3 0.00 0.00 0.00 14 1004.8
20260506223034 27 274 32.2 45.1 0.00 0.00 0.00 16 1004.8
20260506221527 27 264 24.1 48.3 0.00 0.00 0.00 16 1004.8
20260506220034 27 241 32.2 40.2 0.00 0.00 0.00 16 1004.9
20260506214527 27 259 29.0 46.7 0.00 0.00 0.00 17 1005.0
20260506213030 27 246 32.2 46.7 0.00 0.00 0.00 17 1005.2
20260506211541 26 250 29.0 45.1 0.00 0.00 0.00 18 1005.2
20260506210041 26 244 32.2 41.8 0.00 0.00 0.00 18 1005.4
20260506204550 26 248 25.7 40.2 0.00 0.00 0.00 19 1005.8
20260506203039 26 273 29.0 43.5 0.00 0.00 0.00 18 1006.0
20260506201542 26 262 17.7 45.1 0.00 0.00 0.00 20 1006.1
20260506200055 26 222 24.1 35.4 0.00 0.00 0.00 19 1006.1
20260506194544 25 196 19.3 29.0 0.00 0.00 0.00 22 1006.2
20260506193036 25 247 9.7 30.6 0.00 0.00 0.00 25 1006.5
20260506191531 25 289 12.9 20.9 0.00 0.00 0.00 24 1006.8
20260506190029 24 240 11.3 29.0 0.00 0.00 0.00 25 1007.0
20260506184528 24 254 17.7 29.0 0.00 0.00 0.00 25 1007.2
20260506183026 23 220 11.3 17.7 0.00 0.00 0.00 26 1007.4
20260506181537 23 255 14.5 29.0 0.00 0.00 0.00 26 1007.7
20260506180036 23 297 9.7 19.3 0.00 0.00 0.00 26 1007.9
20260506174535 23 311 8.0 24.1 0.00 0.00 0.00 27 1008.1
20260506173033 23 342 12.9 24.1 0.00 0.00 0.00 27 1008.1
20260506171534 23 292 9.7 25.7 0.00 0.00 0.00 26 1008.2
20260506170020 23 322 17.7 22.5 0.00 0.00 0.00 27 1008.2
20260506164520 23 300 19.3 27.4 0.00 0.00 0.00 27 1008.2
20260506163017 22 325 20.9 35.4 0.00 0.00 0.00 29 1008.1
20260506161521 22 314 20.9 33.8 0.00 0.00 0.00 28 1007.9
20260506160021 22 314 25.7 37.0 0.00 0.00 0.00 29 1007.7
20260506154516 22 306 27.4 35.4 0.00 0.00 0.00 30 1007.6
20260506153011 22 329 24.1 30.6 0.00 0.00 0.00 29 1007.6
20260506151506 22 360 17.7 27.4 0.00 0.00 0.00 31 1007.5
20260506150008 21 342 17.7 29.0 0.00 0.00 0.00 32 1007.5
20260506144503 20 33 14.5 22.5 0.00 0.00 0.00 36 1007.4
20260506143010 20 355 16.1 22.5 0.00 0.00 0.00 36 1007.3
20260506141510 19 355 14.5 20.9 0.00 0.00 0.00 37 1007.3
20260506140010 18 355 19.3 24.1 0.00 0.00 0.00 37 1007.4
20260506134505 18 336 14.5 22.5 0.00 0.00 0.00 40 1007.1
20260506133005 17 247 12.9 14.5 0.00 0.00 0.00 42 1007.0
20260506131552 16 244 11.3 14.5 0.00 0.00 0.00 44 1006.7
20260506130057 17 242 8.0 11.3 0.00 0.00 0.00 42 1006.5